Location: Newark
(7.0858°N, 171.3717°E)
Time: 15:53:23
(UTC+00:00)

Courier 1B Rocket - Pass Details

Date: 27 November 2020
Orbit: 920 x 1202 km, 28.2° (Epoch: 20 January)

Event Time Altitude Azimuth Distance (km) Brightness Sun altitude
Rises 02:52:12 0° 289° (WNW) 3,707 8.4 43.6°
Reaches altitude 10° 02:55:02 10° 283° (WNW) 2,718 7.9 43.0°
Maximum altitude 03:01:15 47° 211° (SSW) 1,222 7.5 41.8°
Drops below altitude 10° 03:07:14 10° 138° (SE) 2,609 7.3 40.6°
Sets 03:09:54 0° 132° (SE) 3,545 7.8 40.1°
